Location: Recife
(8.0585°S, 34.8848°W)
Time: 20:59:36
(UTC-03:00)

Explorer 11/Cluster Stage 4 - Pass Details

Date: 14 April 2026
Orbit: 463 x 1174 km, 28.8° (Epoch: 16 May)

Event Time Altitude Azimuth Distance (km) Brightness Sun altitude
Rises 09:07:12 0° 283° (WNW) 3,484 9.6 52.6°
Reaches altitude 10° 09:11:29 10° 311° (NW) 2,712 9.3 53.5°
Maximum altitude 09:14:09 13° 335° (NNW) 2,617 9.4 54.1°
Drops below altitude 10° 09:16:58 10° 358° (N) 2,887 9.8 54.7°
Sets 09:21:55 0° 25° (NNE) 3,957 10.6 55.8°
